Augusta Bush, GA

3:57 AM EDT on May 28, 2017 (GMT -0400)
Augusta Regional At Bush

Weather History for KAGS - January, 2013

Change the Weather History Date:

Thursday, January 24, 2013

  Actual Average Record
Temperature  
Mean Temperature 52 °F 46 °F  
Max Temperature 67 °F 59 °F 80 °F (1950)
Min Temperature 36 °F 33 °F 12 °F (2005)
Degree Days  
Heating Degree Days 13 19  
Month to date heating degree days 291 477  
Since 1 July heating degree days 1217 1452  
Cooling Degree Days 0 0  
Month to date cooling degree days 13 0  
Year to date cooling degree days 13 0  
Growing Degree Days 2 (Base 50)    
Moisture  
Dew Point 29 °F    
Average Humidity 47    
Maximum Humidity 76    
Minimum Humidity 17    
Precipitation  
Precipitation 0.00 in 0.14 in 2.17 in (1958)
Month to date precipitation 0.29 3.00  
Year to date precipitation 0.29 3.00  
Sea Level Pressure  
Sea Level Pressure 30.22 in    
Wind  
Wind Speed 12 mph (WNW)    
Max Wind Speed 24 mph    
Max Gust Speed 31 mph    
Visibility 10 miles    
Events      
T = Trace of Precipitation, MM = Missing Value Source: NWS Daily Summary

Daily Weather History Graph

Daily Weather History Graph

Search for Another Location

Airport or City:

Trip Planner

Search our weather history database for the weather conditions in past years. The results will help you decide how hot, cold, wet, or windy it might be!

Date:

Astronomy

Jan. 24, 2013 Rise Set
Actual Time 7:28 AM EST 5:52 PM EST
Civil Twilight 7:01 AM EST 6:18 PM EST
Nautical Twilight 6:31 AM EST 6:48 PM EST
Astronomical Twilight 6:02 AM EST 7:18 PM EST
Moon 3:54 PM EST (1/24) 5:23 AM EST (1/24)
Length of Visible Light 11h 16m
Length of Day
10h 23m
Waxing Gibbous, 94% of the Moon is Illuminated
Jan 24
Waxing Gibbous
Jan 26
Full
Feb 3
Last Quarter
Feb 10
New
Feb 17
First Quarter

Hourly Weather History & Observations

Time (EST) Temp. Windchill Dew Point Humidity Pressure Visibility Wind Dir Wind Speed Gust Speed Precip Events Conditions
12:53 AM 50.0 °F - 36.0 °F 59% 30.18 in 10.0 mi West 9.2 mph - N/A   Partly Cloudy
1:53 AM 50.0 °F - 37.0 °F 61% 30.16 in 10.0 mi West 6.9 mph - N/A   Overcast
2:53 AM 50.0 °F - 37.0 °F 61% 30.14 in 10.0 mi WSW 6.9 mph - N/A   Overcast
3:53 AM 48.0 °F - 37.9 °F 68% 30.12 in 10.0 mi WSW 5.8 mph - N/A   Clear
4:53 AM 46.9 °F - 39.0 °F 74% 30.12 in 10.0 mi West 4.6 mph - N/A   Scattered Clouds
5:53 AM 44.1 °F 40.8 °F 37.9 °F 79% 30.12 in 10.0 mi SW 5.8 mph - N/A   Clear
6:53 AM 46.9 °F - 39.9 °F 77% 30.14 in 10.0 mi WSW 8.1 mph - N/A   Clear
7:53 AM 50.0 °F - 41.0 °F 71% 30.14 in 10.0 mi WSW 12.7 mph 20.7 mph N/A   Clear
8:53 AM 53.1 °F - 42.1 °F 66% 30.17 in 10.0 mi West 16.1 mph - N/A   Clear
9:53 AM 57.0 °F - 41.0 °F 55% 30.19 in 10.0 mi WNW 17.3 mph 24.2 mph N/A   Clear
10:53 AM 59.0 °F - 37.0 °F 44% 30.20 in 10.0 mi WNW 17.3 mph 24.2 mph N/A   Clear
11:53 AM 63.0 °F - 33.1 °F 33% 30.18 in 10.0 mi WNW 13.8 mph 21.9 mph N/A   Clear
12:53 PM 64.0 °F - 30.0 °F 28% 30.18 in 10.0 mi WNW 15.0 mph 25.3 mph N/A   Clear
1:53 PM 66.0 °F - 26.1 °F 22% 30.17 in 10.0 mi NW 20.7 mph 27.6 mph N/A   Clear
2:53 PM 64.9 °F - 23.0 °F 20% 30.17 in 10.0 mi NW 15.0 mph 31.1 mph N/A   Clear
3:53 PM 64.9 °F - 26.1 °F 23% 30.19 in 10.0 mi NW 11.5 mph 16.1 mph N/A   Clear
4:53 PM 61.0 °F - 15.1 °F 17% 30.22 in 10.0 mi North 11.5 mph - N/A   Clear
5:53 PM 53.1 °F - 17.1 °F 24% 30.25 in 10.0 mi NNW 8.1 mph - N/A   Clear
6:53 PM 51.1 °F - 19.9 °F 29% 30.30 in 10.0 mi NE 8.1 mph - N/A   Clear
7:53 PM 48.9 °F - 24.1 °F 38% 30.34 in 10.0 mi East 12.7 mph - N/A   Clear
8:53 PM 45.0 °F 38.9 °F 19.0 °F 36% 30.39 in 10.0 mi ENE 12.7 mph 21.9 mph N/A   Clear
9:53 PM 41.0 °F 34.3 °F 16.0 °F 36% 30.42 in 10.0 mi ENE 11.5 mph - N/A   Clear
10:53 PM 39.0 °F 30.3 °F 12.9 °F 34% 30.45 in 10.0 mi East 16.1 mph 20.7 mph N/A   Clear
11:53 PM 36.0 °F 28.5 °F 10.0 °F 34% 30.45 in 10.0 mi East 10.4 mph - N/A   Clear